Flag for United Kingdom Weather past 2 weeks in Derby, England, United Kingdom

Now
43 °F

Passing clouds.


Feels Like: 33 °F
Forecast: 40 / 53 °F
Wind: 23 mph from Southwest

Location: East Midlands

Current Time: Dec 21, 2014 at 5:57:52 AM

Latest Report: Dec 21, 2014 at 5:20 AM


Visibility: N/A

Pressure: 30.27 "Hg

Humidity: 87%

Dew point: 39 °F

Location of DerbyLocation

Historic Weather in Derby — Graph

°F

Derby temperature yesterday

Maximum temperature yesterday: 46 °F (at 1:20 PM)
Minimum temperature yesterday: 43 °F (at 12:20 AM)
Average temperature yesterday: 44 °F

Past Weeks' High & Low Weather Summary

 TemperatureHumidityPressure
High57 °F (Dec 18, 1:20 PM)100% (Dec 6, 5:50 AM)30.39 "Hg (Dec 6, 5:50 AM)
Low27 °F (Dec 6, 4:50 AM)57% (Dec 7, 2:20 PM)29.12 "Hg (Dec 12, 3:50 AM)
Average42 °F85%29.86 "Hg
* Reported Dec 6 4:20 AM — Dec 21 4:50 AM, Derby, Weather by CustomWeather, © 2014

Note: Actual official high and low records may vary slightly from our data, if they occured in-between our weather recording intervals... More about our weather records

Advertising

Derby weather history for previous 24 hours

 ConditionsComfort  
Time TempWeatherWind HumidityBarometerVisibility
4:50 AM
Dec 21
43 °FPassing clouds.20 mph87%30.27 "HgN/A
4:20 AM43 °FPassing clouds.20 mph87%30.27 "HgN/A
3:50 AM43 °FPassing clouds.20 mph87%30.30 "HgN/A
3:20 AM43 °FPassing clouds.17 mph87%30.30 "HgN/A
2:50 AM43 °FPassing clouds.15 mph87%30.30 "HgN/A
2:20 AM43 °FPassing clouds.14 mph87%30.33 "HgN/A
1:50 AM45 °FPassing clouds.13 mph81%30.33 "HgN/A
1:20 AM45 °FPassing clouds.14 mph81%30.33 "HgN/A
12:50 AM45 °FPassing clouds.14 mph81%30.36 "HgN/A
12:20 AM45 °FPassing clouds.10 mph81%30.36 "HgN/A
11:50 PM
Dec 20
45 °FPassing clouds.12 mph81%30.39 "HgN/A
11:20 PM45 °FPassing clouds.12 mph81%30.39 "HgN/A
10:50 PM45 °FPassing clouds.10 mph81%30.36 "HgN/A
10:20 PM45 °FPassing clouds.12 mph81%30.36 "HgN/A
9:20 PM45 °FPassing clouds.12 mph81%30.36 "HgN/A
8:50 PM45 °FPassing clouds.14 mph81%30.36 "HgN/A
8:20 PM45 °FPassing clouds.15 mph81%30.36 "HgN/A
7:50 PM45 °FPassing clouds.16 mph81%30.36 "HgN/A
7:20 PM45 °FPassing clouds.14 mph81%30.36 "HgN/A
6:50 PM45 °FPassing clouds.13 mph81%30.36 "HgN/A
6:20 PM45 °FPassing clouds.13 mph81%30.33 "HgN/A
5:50 PM45 °FPassing clouds.15 mph81%30.33 "HgN/A
5:20 PM45 °FPassing clouds.13 mph81%30.33 "HgN/A
4:50 PM45 °FPassing clouds.8 mph81%30.33 "HgN/A
3:20 PM45 °FPassing clouds.14 mph81%30.27 "HgN/A
2:50 PM45 °FPassing clouds.21 mph81%30.27 "HgN/A
2:20 PM45 °FSprinkles. Partly sunny.21 mph87%30.24 "HgN/A
1:50 PM45 °FSprinkles. Partly sunny.23 mph81%30.24 "HgN/A
1:20 PM46 °FScattered showers. Partly sunny.23 mph76%30.24 "HgN/A
12:20 PM45 °FSprinkles. Broken clouds.25 mph81%30.21 "HgN/A
11:20 AM45 °FSprinkles. Partly sunny.23 mph81%30.21 "HgN/A
10:20 AM45 °FRain showers. Partly sunny.25 mph81%30.21 "HgN/A
9:50 AM45 °FLight rain. Partly sunny.24 mph81%30.18 "HgN/A
9:20 AM45 °FLight rain. Partly sunny.25 mph76%30.15 "HgN/A
8:50 AM45 °FPartly sunny.28 mph76%30.15 "HgN/A
8:20 AM45 °FLight rain. Partly sunny.24 mph76%30.15 "HgN/A
7:50 AM43 °FLight rain. Passing clouds.24 mph81%30.15 "HgN/A
7:20 AM45 °FPassing clouds.22 mph71%30.15 "HgN/A
6:50 AM45 °FPassing clouds.23 mph76%30.12 "HgN/A
6:20 AM43 °FPassing clouds.25 mph81%30.12 "HgN/A
5:50 AM45 °FPassing clouds.26 mph76%30.12 "HgN/A
5:20 AM45 °FPassing clouds.22 mph76%30.12 "HgN/A
Weather by CustomWeather, © 2014

See weather overviewHow to use our weather pages